TimeCST,TemperatureF,Dew PointF,Humidity,Sea Level PressureIn,VisibilityMPH,Wind Direction,Wind SpeedMPH,Gust SpeedMPH,PrecipitationIn,Events,Conditions,WindDirDegrees,DateUTC
12:15 AM,-7.6,-11.2,84,30.24,10.0,North,3.5,-,N/A,,Clear,350,2013-01-01 06:15:00
12:35 AM,-5.8,-9.4,84,30.23,10.0,Calm,Calm,-,N/A,,Clear,0,2013-01-01 06:35:00
12:55 AM,-9.4,-13.0,84,30.23,10.0,Calm,Calm,-,N/A,,Clear,0,2013-01-01 06:55:00
1:15 AM,-9.4,-14.8,77,30.23,10.0,Calm,Calm,-,N/A,,Clear,0,2013-01-01 07:15:00
1:35 AM,-9.4,-13.0,84,30.23,10.0,Calm,Calm,-,N/A,,Clear,0,2013-01-01 07:35:00
1:55 AM,-9.4,-14.8,77,30.23,10.0,Calm,Calm,-,N/A,,Clear,0,2013-01-01 07:55:00
2:15 AM,-9.4,-13.0,84,30.23,10.0,Calm,Calm,-,N/A,,Clear,0,2013-01-01 08:15:00
2:35 AM,-13.0,-16.6,84,30.23,10.0,Calm,Calm,-,N/A,,Clear,0,2013-01-01 08:35:00
2:55 AM,-13.0,-16.6,84,30.23,10.0,Calm,Calm,-,N/A,,Clear,0,2013-01-01 08:55:00
3:15 AM,-9.4,-14.8,77,30.23,10.0,Calm,Calm,-,N/A,,Clear,0,2013-01-01 09:15:00
3:35 AM,-13.0,-16.6,84,30.23,10.0,Calm,Calm,-,N/A,,Clear,0,2013-01-01 09:35:00
3:55 AM,-14.8,-18.4,84,30.23,10.0,Calm,Calm,-,N/A,,Clear,0,2013-01-01 09:55:00
4:15 AM,-13.0,-16.6,84,30.24,10.0,Calm,Calm,-,N/A,,Clear,0,2013-01-01 10:15:00
4:35 AM,-14.8,-18.4,84,30.24,10.0,Calm,Calm,-,N/A,,Clear,0,2013-01-01 10:35:00
4:55 AM,-14.8,-18.4,84,30.24,10.0,Calm,Calm,-,N/A,,Clear,0,2013-01-01 10:55:00
5:15 AM,-14.8,-18.4,84,30.25,10.0,South,3.5,-,N/A,,Clear,190,2013-01-01 11:15:00
5:35 AM,-14.8,-20.2,77,30.25,10.0,Calm,Calm,-,N/A,,Clear,0,2013-01-01 11:35:00
5:55 AM,-14.8,-18.4,84,30.25,10.0,Calm,Calm,-,N/A,,Clear,0,2013-01-01 11:55:00
6:15 AM,-16.6,-22.0,76,30.25,10.0,Calm,Calm,-,N/A,,Clear,0,2013-01-01 12:15:00
6:35 AM,-14.8,-18.4,84,30.25,10.0,Calm,Calm,-,N/A,,Clear,0,2013-01-01 12:35:00
7:15 AM,-14.8,-18.4,84,30.24,10.0,Calm,Calm,-,N/A,,Clear,0,2013-01-01 13:15:00
7:35 AM,-14.8,-20.2,77,30.24,10.0,Calm,Calm,-,N/A,,Clear,0,2013-01-01 13:35:00
7:55 AM,-16.6,-22.0,76,30.24,10.0,Calm,Calm,-,N/A,,Clear,0,2013-01-01 13:55:00
8:15 AM,-14.8,-18.4,84,30.23,10.0,Calm,Calm,-,N/A,,Clear,0,2013-01-01 14:15:00
8:35 AM,-13.0,-16.6,84,30.23,10.0,Calm,Calm,-,N/A,,Clear,0,2013-01-01 14:35:00
8:55 AM,-11.2,-16.6,77,30.23,10.0,Calm,Calm,-,N/A,,Clear,0,2013-01-01 14:55:00
9:15 AM,-11.2,-14.8,84,30.22,10.0,Calm,Calm,-,N/A,,Clear,0,2013-01-01 15:15:00
9:35 AM,-7.6,-13.0,77,30.22,10.0,Calm,Calm,-,N/A,,Clear,0,2013-01-01 15:35:00
9:55 AM,-5.8,-9.4,84,30.22,7.0,Calm,Calm,-,N/A,,Clear,0,2013-01-01 15:55:00
10:15 AM,-4.0,-7.6,85,30.22,10.0,Calm,Calm,-,N/A,,Clear,0,2013-01-01 16:15:00
10:35 AM,-2.2,-5.8,85,30.21,10.0,Calm,Calm,-,N/A,,Clear,0,2013-01-01 16:35:00
10:55 AM,-0.4,-5.8,78,30.20,10.0,Calm,Calm,-,N/A,,Clear,0,2013-01-01 16:55:00
11:15 AM,1.4,-2.2,85,30.20,10.0,WSW,4.6,-,N/A,,Mostly Cloudy,240,2013-01-01 17:15:00
11:35 AM,3.2,-2.2,78,30.19,10.0,WSW,5.8,-,N/A,,Overcast,240,2013-01-01 17:35:00
11:55 AM,3.2,-0.4,85,30.18,10.0,SW,4.6,-,N/A,Snow,Light Snow,220,2013-01-01 17:55:00
12:15 PM,5.0,-0.4,78,30.17,10.0,Calm,Calm,-,N/A,Snow,Light Snow,0,2013-01-01 18:15:00
12:35 PM,6.8,-0.4,72,30.16,10.0,Calm,Calm,-,N/A,Snow,Light Snow,0,2013-01-01 18:35:00
1:15 PM,8.6,1.4,73,30.14,10.0,South,5.8,-,N/A,Snow,Light Snow,190,2013-01-01 19:15:00
1:35 PM,10.4,1.4,67,30.14,10.0,SW,5.8,-,N/A,,Overcast,220,2013-01-01 19:35:00
1:55 PM,10.4,1.4,67,30.14,10.0,SW,6.9,-,N/A,,Overcast,220,2013-01-01 19:55:00
2:15 PM,10.4,1.4,67,30.13,10.0,SW,10.4,-,N/A,,Overcast,230,2013-01-01 20:15:00
2:35 PM,10.4,1.4,67,30.13,10.0,SW,11.5,-,N/A,,Overcast,220,2013-01-01 20:35:00
3:15 PM,10.4,1.4,67,30.13,10.0,SSW,6.9,-,N/A,Snow,Light Snow,200,2013-01-01 21:15:00
3:35 PM,10.4,1.4,67,30.13,10.0,SW,6.9,-,N/A,,Overcast,220,2013-01-01 21:35:00
3:55 PM,10.4,3.2,73,30.13,10.0,SW,9.2,-,N/A,Snow,Light Snow,220,2013-01-01 21:55:00
4:15 PM,10.4,3.2,73,30.13,10.0,SW,9.2,-,N/A,Snow,Light Snow,220,2013-01-01 22:15:00
4:35 PM,10.4,3.2,73,30.12,7.0,SW,8.1,-,N/A,Snow,Light Snow,220,2013-01-01 22:35:00
4:55 PM,10.4,3.2,73,30.12,10.0,SW,8.1,-,N/A,Snow,Light Snow,220,2013-01-01 22:55:00
5:15 PM,10.4,5.0,79,30.11,10.0,SW,8.1,-,N/A,,Overcast,220,2013-01-01 23:15:00
5:35 PM,10.4,5.0,79,30.11,10.0,SSW,5.8,-,N/A,Snow,Light Snow,210,2013-01-01 23:35:00
5:55 PM,10.4,6.8,85,30.10,10.0,SSW,5.8,-,N/A,,Overcast,210,2013-01-01 23:55:00
6:15 PM,12.2,8.6,85,30.10,10.0,SSW,6.9,-,N/A,,Overcast,210,2013-01-02 00:15:00
6:35 PM,12.2,8.6,85,30.09,10.0,SSW,6.9,-,N/A,,Overcast,210,2013-01-02 00:35:00
6:55 PM,12.2,10.4,92,30.09,10.0,SSW,5.8,-,N/A,,Overcast,210,2013-01-02 00:55:00
7:15 PM,12.2,10.4,92,30.08,10.0,SSW,6.9,-,N/A,,Overcast,210,2013-01-02 01:15:00
7:35 PM,12.2,10.4,92,30.08,10.0,SSW,4.6,-,N/A,,Overcast,200,2013-01-02 01:35:00
7:55 PM,14.0,10.4,86,30.07,10.0,SSW,6.9,-,N/A,,Overcast,200,2013-01-02 01:55:00
8:15 PM,14.0,10.4,86,30.07,10.0,SSW,5.8,-,N/A,,Overcast,210,2013-01-02 02:15:00
8:35 PM,14.0,10.4,86,30.06,10.0,SSW,5.8,-,N/A,,Overcast,200,2013-01-02 02:35:00
8:55 PM,14.0,12.2,93,30.06,10.0,SSW,5.8,-,N/A,,Overcast,210,2013-01-02 02:55:00
9:15 PM,14.0,12.2,93,30.05,10.0,SSW,8.1,-,N/A,,Overcast,210,2013-01-02 03:15:00
9:35 PM,15.8,12.2,86,30.04,10.0,SSW,6.9,-,N/A,,Overcast,200,2013-01-02 03:35:00
9:55 PM,15.8,12.2,86,30.03,10.0,SSW,6.9,-,N/A,,Overcast,200,2013-01-02 03:55:00
10:15 PM,17.6,12.2,79,30.03,10.0,SSW,8.1,-,N/A,,Overcast,200,2013-01-02 04:15:00
10:35 PM,17.6,14.0,86,30.03,10.0,SSW,6.9,-,N/A,,Overcast,210,2013-01-02 04:35:00
10:55 PM,17.6,14.0,86,30.03,10.0,SW,8.1,-,N/A,,Overcast,220,2013-01-02 04:55:00
11:15 PM,17.6,14.0,86,30.03,10.0,SW,8.1,-,N/A,,Overcast,220,2013-01-02 05:15:00
11:35 PM,17.6,14.0,86,30.02,10.0,South,5.8,-,N/A,,Overcast,190,2013-01-02 05:35:00
11:55 PM,17.6,14.0,86,30.02,10.0,South,4.6,-,N/A,,Overcast,190,2013-01-02 05:55:00